Location: *
(49.4547°N, 7.9131°E)
Time: 15:21:18
(UTC+00:00)

Cosmos 1371 Rocket - Pass Details

Date: 22 September 2019
Orbit: 753 x 790 km, 74.0° (Epoch: 16 October)

Event Time Altitude Azimuth Distance (km) Brightness Sun altitude
Rises 18:08:29 0° 180° (S) 3,246 7.2 -7.5°
Reaches altitude 10° 18:10:57 10° 174° (S) 2,329 6.3 -7.9°
Maximum altitude 18:15:55 42° 104° (ESE) 1,104 4.4 -8.7°
Drops below altitude 10° 18:20:57 10° 35° (NE) 2,361 6.3 -9.5°
Sets 18:23:27 0° 29° (NNE) 3,297 7.1 -9.9°
